When you browse on this site, cookies collect data to enhance your experience and personalize the content and advertising you see.
Visit our Privacy Policy to learn more. By continuing to use the site, you agree to this use of cookies and data.
  • en Suisse
  • Liste des pays
  • À 7 jours
  • Température de l'eau
  • Carte satellitaire
  • Carte météo
  • Widgets météo
  • user-avatar
    Se connecter

    Météo par heure à Brasília

    Ce jour, 16 Janvier, Mercredi

    Heure Température Précipitation Vent Pression Humidité
    00:00 +22°C° 0.3 mm 1 m/s 667 mmHg 81%
    01:00 +22°C° 0 mm 1 m/s 667 mmHg 82%
    02:00 +19°C° 0 mm 0 m/s 667 mmHg 82%
    03:00 +19°C° 0 mm 0 m/s 667 mmHg 82%
    04:00 +19°C° 0 mm 0 m/s 667 mmHg 84%
    05:00 +18°C° 0 mm 0 m/s 667 mmHg 85%
    06:00 +18°C° 0 mm 0 m/s 667 mmHg 87%
    07:00 +22°C° 0 mm 1 m/s 668 mmHg 80%
    08:00 +24°C° 0 mm 1 m/s 669 mmHg 74%
    09:00 +26°C° 0 mm 2 m/s 669 mmHg 67%
    10:00 +28°C° 0 mm 2 m/s 669 mmHg 63%
    11:00 +29°C° 0 mm 2 m/s 670 mmHg 58%
    12:00 +30°C° 0 mm 3 m/s 670 mmHg 53%
    13:00 +30°C° 0.4 mm 2 m/s 669 mmHg 53%
    14:00 +30°C° 0.4 mm 2 m/s 669 mmHg 53%
    15:00 +31°C° 0.4 mm 2 m/s 668 mmHg 53%
    16:00 +30°C° 0 mm 1 m/s 668 mmHg 56%
    17:00 +29°C° 0 mm 1 m/s 667 mmHg 59%
    18:00 +28°C° 0 mm 1 m/s 667 mmHg 62%
    19:00 +27°C° 0.2 mm 1 m/s 667 mmHg 65%
    20:00 +26°C° 0.2 mm 1 m/s 667 mmHg 68%
    21:00 +24°C° 0.2 mm 1 m/s 667 mmHg 71%
    22:00 +24°C° 0 mm 1 m/s 667 mmHg 72%
    23:00 +23°C° 0 mm 1 m/s 667 mmHg 73%

    Demain, 17 Janvier, Jeudi

    Heure Température Précipitation Vent Pression Humidité
    00:00 +23°C° 0 mm 1 m/s 667 mmHg 75%
    01:00 +23°C° 0 mm 1 m/s 667 mmHg 76%
    02:00 +22°C° 0 mm 1 m/s 667 mmHg 77%
    03:00 +22°C° 0 mm 1 m/s 666 mmHg 78%
    04:00 +22°C° 0 mm 1 m/s 666 mmHg 79%
    05:00 +21°C° 0 mm 1 m/s 666 mmHg 79%
    06:00 +21°C° 0 mm 1 m/s 666 mmHg 80%
    07:00 +23°C° 0 mm 2 m/s 667 mmHg 74%
    08:00 +25°C° 0 mm 2 m/s 668 mmHg 69%
    09:00 +27°C° 0 mm 3 m/s 669 mmHg 63%
    10:00 +28°C° 0 mm 2 m/s 669 mmHg 58%
    11:00 +30°C° 0 mm 2 m/s 669 mmHg 53%
    12:00 +31°C° 0 mm 2 m/s 669 mmHg 48%
    13:00 +31°C° 0 mm 2 m/s 668 mmHg 47%
    14:00 +32°C° 0 mm 1 m/s 668 mmHg 46%
    15:00 +32°C° 0 mm 1 m/s 667 mmHg 45%
    16:00 +31°C° 0 mm 1 m/s 667 mmHg 49%
    17:00 +29°C° 0 mm 1 m/s 666 mmHg 53%
    18:00 +28°C° 0 mm 1 m/s 665 mmHg 57%
    19:00 +25°C° 0.1 mm 0 m/s 666 mmHg 60%
    20:00 +24°C° 0.1 mm 0 m/s 666 mmHg 63%
    21:00 +23°C° 0.1 mm 0 m/s 666 mmHg 66%
    22:00 +24°C° 1.5 mm 1 m/s 666 mmHg 72%
    23:00 +23°C° 1.5 mm 1 m/s 666 mmHg 77%

    Après-demain, 18 Janvier, Vendredi

    Heure Température Précipitation Vent Pression Humidité
    00:00 +21°C° 1.5 mm 2 m/s 666 mmHg 83%
    01:00 +21°C° 0.1 mm 2 m/s 666 mmHg 84%
    02:00 +21°C° 0.1 mm 2 m/s 666 mmHg 85%
    03:00 +22°C° 0.1 mm 1 m/s 665 mmHg 85%
    04:00 +22°C° 0 mm 1 m/s 665 mmHg 86%
    05:00 +22°C° 0 mm 1 m/s 665 mmHg 86%
    06:00 +22°C° 0 mm 1 m/s 665 mmHg 87%
    07:00 +23°C° 0.6 mm 2 m/s 666 mmHg 82%
    08:00 +25°C° 0.6 mm 2 m/s 667 mmHg 77%
    09:00 +26°C° 0.6 mm 2 m/s 667 mmHg 72%
    10:00 +27°C° 0.8 mm 2 m/s 667 mmHg 68%
    11:00 +28°C° 0.8 mm 2 m/s 667 mmHg 64%
    12:00 +28°C° 0.8 mm 2 m/s 668 mmHg 60%
    13:00 +29°C° 0.2 mm 1 m/s 667 mmHg 58%
    14:00 +29°C° 0.2 mm 1 m/s 667 mmHg 56%
    15:00 +30°C° 0.2 mm 1 m/s 666 mmHg 54%
    16:00 +28°C° 1.4 mm 1 m/s 666 mmHg 62%
    17:00 +24°C° 1.4 mm 0 m/s 665 mmHg 70%
    18:00 +23°C° 1.4 mm 0 m/s 665 mmHg 77%
    19:00 +22°C° 0 mm 0 m/s 665 mmHg 78%
    20:00 +21°C° 0 mm 0 m/s 665 mmHg 78%
    21:00 +21°C° 0 mm 0 m/s 665 mmHg 79%
    22:00 +20°C° 0 mm 0 m/s 665 mmHg 79%
    23:00 +20°C° 0 mm 0 m/s 665 mmHg 79%

    19 Janvier, Samedi

    Heure Température Précipitation Vent Pression Humidité
    00:00 +19°C° 0 mm 0 m/s 665 mmHg 79%
    01:00 +21°C° 0 mm 1 m/s 665 mmHg 79%
    02:00 +21°C° 0 mm 1 m/s 664 mmHg 80%
    03:00 +21°C° 0 mm 1 m/s 664 mmHg 80%
    04:00 +21°C° 0 mm 1 m/s 664 mmHg 80%
    05:00 +21°C° 0 mm 1 m/s 665 mmHg 81%
    06:00 +21°C° 0 mm 1 m/s 665 mmHg 82%
    07:00 +23°C° 0 mm 2 m/s 666 mmHg 75%
    08:00 +25°C° 0 mm 2 m/s 667 mmHg 69%
    09:00 +27°C° 0 mm 3 m/s 667 mmHg 62%
    10:00 +28°C° 0 mm 3 m/s 668 mmHg 58%
    11:00 +29°C° 0 mm 3 m/s 668 mmHg 54%
    12:00 +30°C° 0 mm 3 m/s 668 mmHg 50%
    13:00 +30°C° 0.2 mm 2 m/s 667 mmHg 51%
    14:00 +30°C° 0.2 mm 2 m/s 666 mmHg 51%
    15:00 +30°C° 0.2 mm 1 m/s 665 mmHg 52%
    16:00 +29°C° 0 mm 1 m/s 665 mmHg 56%
    17:00 +28°C° 0 mm 1 m/s 665 mmHg 59%
    18:00 +27°C° 0 mm 1 m/s 665 mmHg 63%
    19:00 +26°C° 0.1 mm 1 m/s 665 mmHg 66%
    20:00 +25°C° 0.1 mm 1 m/s 665 mmHg 68%
    21:00 +24°C° 0.1 mm 1 m/s 665 mmHg 71%
    22:00 +24°C° 0 mm 1 m/s 665 mmHg 72%
    23:00 +23°C° 0 mm 1 m/s 665 mmHg 72%

    20 Janvier, Dimanche

    Heure Température Précipitation Vent Pression Humidité
    00:00 +23°C° 0 mm 1 m/s 665 mmHg 73%
    01:00 +23°C° 0 mm 1 m/s 665 mmHg 72%
    02:00 +23°C° 0 mm 1 m/s 665 mmHg 72%
    03:00 +23°C° 0 mm 2 m/s 665 mmHg 72%
    04:00 +21°C° 0.1 mm 2 m/s 665 mmHg 74%
    05:00 +21°C° 0.1 mm 2 m/s 665 mmHg 76%
    06:00 +20°C° 0.1 mm 2 m/s 665 mmHg 78%
    07:00 +22°C° 0 mm 3 m/s 666 mmHg 72%
    08:00 +25°C° 0 mm 3 m/s 667 mmHg 66%
    09:00 +27°C° 0 mm 3 m/s 668 mmHg 59%
    10:00 +28°C° 0 mm 3 m/s 668 mmHg 55%
    11:00 +29°C° 0 mm 3 m/s 668 mmHg 51%
    12:00 +30°C° 0 mm 3 m/s 668 mmHg 47%
    13:00 +30°C° 0 mm 3 m/s 667 mmHg 48%
    14:00 +30°C° 0 mm 2 m/s 666 mmHg 49%
    15:00 +30°C° 0 mm 2 m/s 666 mmHg 51%
    16:00 +29°C° 0.1 mm 1 m/s 666 mmHg 55%
    17:00 +28°C° 0.1 mm 1 m/s 665 mmHg 60%
    18:00 +27°C° 0.1 mm 1 m/s 665 mmHg 64%
    19:00 +26°C° 0.1 mm 1 m/s 665 mmHg 67%
    20:00 +25°C° 0.1 mm 1 m/s 665 mmHg 69%
    21:00 +24°C° 0.1 mm 1 m/s 666 mmHg 72%
    22:00 +21°C° 0 mm 0 m/s 666 mmHg 74%
    23:00 +21°C° 0 mm 0 m/s 666 mmHg 75%

    21 Janvier, Lundi

    Heure Température Précipitation Vent Pression Humidité
    00:00 +20°C° 0 mm 0 m/s 666 mmHg 77%
    01:00 +20°C° 0 mm 0 m/s 666 mmHg 78%
    02:00 +19°C° 0 mm 0 m/s 665 mmHg 79%
    03:00 +19°C° 0 mm 0 m/s 665 mmHg 80%
    04:00 +18°C° 0 mm 0 m/s 665 mmHg 79%
    05:00 +18°C° 0 mm 0 m/s 665 mmHg 79%
    06:00 +18°C° 0 mm 0 m/s 665 mmHg 79%
    07:00 +20°C° 0 mm 0 m/s 666 mmHg 71%
    08:00 +25°C° 0 mm 1 m/s 667 mmHg 63%
    09:00 +27°C° 0 mm 1 m/s 668 mmHg 55%
    10:00 +29°C° 0 mm 1 m/s 668 mmHg 50%
    11:00 +30°C° 0 mm 2 m/s 668 mmHg 45%
    12:00 +31°C° 0 mm 2 m/s 668 mmHg 40%
    13:00 +31°C° 0 mm 2 m/s 667 mmHg 41%
    14:00 +31°C° 0 mm 2 m/s 667 mmHg 43%
    15:00 +31°C° 0 mm 2 m/s 666 mmHg 44%
    16:00 +30°C° 0 mm 2 m/s 666 mmHg 48%
    17:00 +29°C° 0 mm 2 m/s 665 mmHg 52%
    18:00 +28°C° 0 mm 2 m/s 665 mmHg 56%
    19:00 +27°C° 0 mm 2 m/s 666 mmHg 58%
    20:00 +25°C° 0 mm 2 m/s 666 mmHg 59%
    21:00 +24°C° 0 mm 2 m/s 666 mmHg 60%
    22:00 +24°C° 0 mm 2 m/s 666 mmHg 61%
    23:00 +23°C° 0 mm 2 m/s 666 mmHg 62%
    Voir plus